[[{"header":{"parameterUnit":"m.s-1","parameterCategory":2,"la1":30.2991,"la2":30.254,"lo1":-89.0895,"lo2":-89.0444,"dy":0.0017,"dx":0.0017,"nx":28,"ny":28,"refTime":"2025-04-01T21:00:00:Z","depth":"0","parameterNumber":2,"parameterNumberName":"U-component_of_CURRENTS"},"data":[0,0,0,0,0,0,0,0,0,0,0,0,0,0,0,0,0,0,0,0,0,0,0,0,0,0,0,0,0,0,0,0,0,0,0,0,0,0,0,0,0,0,0,0,0,0,0,0,0,0,0,0,0,0,0,0,0,0,0.2784,0.2784,0,0.2789,0.2789,0.2789,0.2768,0.2767,0.2767,0.2766,0.2737,0.2736,0.2736,0,0,0,0,0,0,0,0,0,0,0,0,0,0.2754,0.2754,0.2784,0.2784,0.2784,0.2789,0.2789,0.2789,0.2768,0.2767,0.2767,0.2766,0.2737,0.2736,0.2736,0,0,0,0,0,0,0,0,0,0,0,0,0,0.2762,0.2755,0.2784,0.2776,0.2775,0.2789,0.2789,0.2789,0.2768,0.2767,0.2766,0.2766,0.2737,0.2736,0.2736,0.2746,0,0,0.2734,0.2734,0,0,0,0,0,0,0,0,0.2762,0.2763,0.2777,0.2776,0.2776,0.2779,0.2767,0.2773,0.2768,0.2769,0.2766,0.2765,0.2749,0.2747,0.2748,0.2745,0.2743,0.2734,0.2734,0.2733,0.2733,0,0,0,0,0,0,0,0.2761,0.2763,0.2784,0.2777,0.2777,0.2771,0.2771,0.2768,0.2761,0.2769,0.2768,0.2771,0.2748,0.2748,0.2747,0.2743,0.2734,0.2734,0.2733,0.2733,0.2778,0.278,0,0,0,0,0,0,0.2765,0.2762,0.2784,0.2784,0.2769,0.2772,0.2773,0.2777,0.2761,0.2759,0.2772,0.277,0.275,0.2748,0.2746,0.2776,0.2733,0.2733,0.2733,0.2777,0.2778,0.278,0,0,0,0,0,0,0.2764,0.2767,0.2784,0.2775,0.2777,0.2774,0.2779,0.2777,0.2782,0.2765,0.2761,0.2778,0.2749,0.2747,0.2755,0.2774,0.2733,0.2732,0.2775,0.2777,0.2779,0.2824,0,0,0,0,0,0,0.2764,0.2767,0.2771,0.2775,0.2777,0.2799,0.278,0.2778,0.2786,0.2784,0.2769,0.2765,0.2748,0.2756,0.2755,0.2772,0.2732,0.2773,0.2776,0.2779,0.2821,0.2828,0.2834,0,0,0,0,0,0.2763,0.277,0.2771,0.2774,0.2783,0.28,0.2801,0.2795,0.2787,0.2795,0.2788,0.2766,0.2773,0.2757,0.2755,0.2773,0.2771,0.2775,0.2778,0.2818,0.2826,0.2834,0,0,0,0,0,0,0.2757,0.2769,0.277,0.278,0.2794,0.2797,0.2804,0.2803,0.2804,0.2802,0.2782,0.2778,0.2797,0.2783,0.2765,0.2797,0.2771,0.2774,0.2801,0.2809,0.2816,0.2821,0.2731,0,0,0,0,0,0.276,0.2769,0.2783,0.2792,0.2801,0.2805,0.2811,0.2812,0.2815,0.2815,0.2805,0.2802,0.281,0.2807,0.281,0.2822,0.2829,0.2835,0.2842,0.2847,0.2852,0.2887,0.2897,0.2791,0.2791,0.2791,0,0,0.2759,0.2769,0.2773,0.2792,0.28,0.2816,0.2807,0.2824,0.2836,0.2812,0.2823,0.2826,0.2821,0.2839,0.2845,0.2826,0.2884,0.2852,0.2856,0.2858,0.2891,0.2901,0.291,0.2794,0.2793,0.2793,0,0,0.2764,0.2775,0.2785,0.28,0.2822,0.2829,0.2838,0.2851,0.2856,0.2872,0.2865,0.2882,0.2879,0.2886,0.2888,0.2934,0.2923,0.2935,0.2962,0.2996,0.3005,0.3012,0.3044,0.3054,0.2931,0.2931,0.2931,0,0.2762,0.2776,0.2791,0.2808,0.2821,0.2838,0.2853,0.2868,0.2881,0.2894,0.2881,0.291,0.2904,0.2936,0.2952,0.2948,0.2964,0.2929,0.3004,0.3011,0.3019,0.3049,0.3059,0.2934,0.2933,0.2933,0.2933,0,0.2774,0.2788,0.2799,0.2824,0.2843,0.2862,0.2888,0.2909,0.2917,0.293,0.2967,0.2969,0.2985,0.2991,0.2981,0.3033,0.3029,0.3013,0.2981,0.3032,0.3061,0.3071,0.2937,0.2937,0.2936,0.2935,0,0,0.2756,0.2797,0.2799,0.2809,0.2853,0.2864,0.2905,0.2941,0.2967,0.2988,0.3021,0.3044,0.3051,0.3056,0.3055,0.3081,0.3146,0.3068,0.3069,0.3095,0.3226,0.323,0.3241,0.3143,0.3145,0.3146,0.323,0,0.2757,0.278,0.2808,0.2832,0.2845,0.2885,0.2919,0.2958,0.299,0.3029,0.3057,0.3087,0.3075,0.3087,0.3116,0.3143,0.3174,0.3125,0.3178,0.3179,0.3172,0.3254,0.3202,0.3273,0.3239,0.3241,0.3242,0,0.2753,0.277,0.2789,0.2831,0.2842,0.2863,0.292,0.2956,0.303,0.3058,0.3105,0.3128,0.3185,0.3158,0.3236,0.3207,0.3223,0.3238,0.3241,0.3235,0.3203,0.3216,0.3292,0.3268,0.3258,0.3256,0.3255,0,0.2714,0.2755,0.2764,0.2778,0.2832,0.2852,0.2888,0.296,0.2998,0.3081,0.312,0.3184,0.3224,0.3262,0.3304,0.3274,0.3389,0.3346,0.3366,0.3366,0.3327,0.3321,0.3381,0.34,0.34,0.34,0.34,0,0.2695,0.2701,0.2743,0.2745,0.2767,0.2821,0.2859,0.2914,0.2998,0.3049,0.3128,0.3186,0.3254,0.3325,0.3341,0.3406,0.3423,0.3396,0.3398,0.3343,0.3337,0.3317,0.3281,0.3403,0.3402,0.3402,0.3401,0,0.2644,0.2672,0.2683,0.273,0.2744,0.2759,0.2831,0.2864,0.296,0.3034,0.3065,0.3205,0.3313,0.3382,0.3462,0.346,0.3436,0.3518,0.3454,0.3447,0.342,0.3388,0.3256,0.316,0.3551,0.3551,0.3552,0,0.2617,0.2618,0.2653,0.2658,0.2675,0.2707,0.2733,0.2827,0.2875,0.3039,0.3075,0.3224,0.3323,0.3475,0.352,0.3584,0.3468,0.3546,0.3474,0.3441,0.3406,0.3213,0.3127,0.3443,0.3443,0.3443,0.3442,0,0.2569,0.2582,0.2591,0.26,0.2614,0.2631,0.2682,0.2714,0.2836,0.2916,0.305,0.3152,0.3352,0.3435,0.3548,0.3563,0.3412,0.3542,0.3526,0.3354,0.3129,0.3031,0.3365,0.344,0.344,0.344,0.3441,0.3441,0.2531,0.2523,0.2535,0.2534,0.2545,0.2547,0.2535,0.2613,0.2676,0.2784,0.2948,0.308,0.3322,0.3495,0.349,0.3513,0.3396,0.3453,0.3427,0.3241,0.3112,0.3449,0.3511,0.3512,0.3512,0.3513,0.3513,0,0.2477,0.2471,0.2469,0.2451,0.2423,0.2461,0.2487,0.2468,0.2502,0.2677,0.2787,0.3041,0.3204,0.3366,0.3518,0.3441,0.3226,0.3364,0.3101,0.3028,0.338,0.3344,0.3352,0.3352,0.3352,0.3352,0.3352,0.3352,0.245,0.2419,0.2409,0.233,0.2314,0.2245,0.2236,0.224,0.2334,0.2461,0.261,0.2776,0.315,0.3444,0.3478,0.3392,0.3145,0.3012,0.2949,0.3267,0.3272,0.3277,0.3238,0.3223,0.3223,0.2485,0.248,0.2476]},{"header":{"parameterUnit":"m.s-1","parameterCategory":2,"la1":30.2991,"la2":30.254,"lo1":-89.0895,"lo2":-89.0444,"dy":0.0017,"dx":0.0017,"nx":28,"ny":28,"refTime":"2025-04-01T21:00:00:Z","depth":"0","parameterNumber":3,"parameterNumberName":"V-component_of_CURRENTS"},"data":[0,0,0,0,0,0,0,0,0,0,0,0,0,0,0,0,0,0,0,0,0,0,0,0,0,0,0,0,0,0,0,0,0,0,0,0,0,0,0,0,0,0,0,0,0,0,0,0,0,0,0,0,0,0,0,0,0,0,0.0162,0.0161,0,0.009,0.0089,0.0088,0.0043,0.0043,0.0043,0.0043,-0.0053,-0.0056,-0.0058,0,0,0,0,0,0,0,0,0,0,0,0,0,0.0209,0.0209,0.0162,0.0161,0.016,0.009,0.0089,0.0088,0.0043,0.0043,0.0043,0.0043,-0.0052,-0.0055,-0.0058,0,0,0,0,0,0,0,0,0,0,0,0,0,0.0167,0.0209,0.0162,0.0131,0.0127,0.009,0.0089,0.0088,0.0043,0.0043,0.0043,0.0043,-0.0051,-0.0055,-0.0059,-0.0079,0,0,-0.007,-0.0072,0,0,0,0,0,0,0,0,0.0169,0.0165,0.0136,0.0133,0.0129,0.0077,0.0071,0.0031,0.0043,0.0073,0.0043,0.0043,-0.0011,-0.0018,-0.0033,-0.0083,-0.0087,-0.007,-0.0073,-0.0074,-0.0075,0,0,0,0,0,0,0,0.0172,0.0168,0.0132,0.0135,0.0131,0.0103,0.0097,0.0063,0.0031,0.0071,0.0068,0.0063,-0.0013,-0.0029,-0.0036,-0.0089,-0.007,-0.0074,-0.0076,-0.0077,-0.0154,-0.0154,0,0,0,0,0,0,0.0188,0.0171,0.0134,0.013,0.0151,0.0103,0.0096,0.0092,0.0032,0.0023,0.0063,0.0061,-0.0023,-0.0031,-0.0039,-0.0047,-0.0074,-0.0078,-0.008,-0.0154,-0.0154,-0.0154,0,0,0,0,0,0,0.0189,0.0185,0.0137,0.015,0.0142,0.0103,0.0098,0.0091,0.0079,0.0027,0.0017,0.0059,-0.0023,-0.0034,-0.0062,-0.0052,-0.0079,-0.0083,-0.0154,-0.0154,-0.0154,-0.0075,0,0,0,0,0,0,0.0191,0.0186,0.0189,0.0151,0.0142,0.0124,0.0099,0.009,0.0076,0.0073,0.002,0.0011,-0.0024,-0.0056,-0.0065,-0.0057,-0.0086,-0.0155,-0.0154,-0.0154,-0.0078,-0.0072,-0.0067,0,0,0,0,0,0.0193,0.0201,0.019,0.0185,0.0147,0.0125,0.0117,0.0087,0.0077,0.0075,0.0041,0.0012,-0.006,-0.0058,-0.007,-0.0063,-0.0155,-0.0154,-0.0154,-0.008,-0.0073,-0.0067,0,0,0,0,0,0,0.0223,0.0196,0.0183,0.0183,0.016,0.0118,0.0115,0.0094,0.0065,0.0064,0.0014,0.0003,-0.0019,-0.0053,-0.0049,-0.0085,-0.0112,-0.0114,-0.0053,-0.0046,-0.0041,-0.0018,-0.0089,0,0,0,0,0,0.0232,0.0231,0.0199,0.0199,0.0192,0.0155,0.0143,0.0124,0.0093,0.008,0.0044,0.0005,-0.0027,-0.0044,-0.008,-0.0098,-0.0129,-0.0102,-0.0097,-0.0092,-0.0082,-0.0122,-0.0119,-0.0152,-0.0152,-0.0152,0,0,0.0244,0.023,0.0228,0.0206,0.0186,0.0185,0.0147,0.0136,0.0136,0.0074,0.0064,0.0022,-0.0029,-0.0048,-0.0061,-0.0074,-0.0098,-0.0091,-0.0087,-0.0079,-0.0121,-0.0118,-0.0115,-0.0152,-0.0152,-0.0152,0,0,0.0272,0.0255,0.0266,0.0253,0.0232,0.021,0.0212,0.0177,0.0162,0.0142,0.0101,0.0071,0.0018,-0.0012,-0.0035,-0.0023,-0.0069,-0.0037,0.0009,-0.003,-0.0027,-0.0025,-0.0053,-0.0054,-0.0034,-0.0033,-0.0033,0,0.0289,0.0297,0.0266,0.0275,0.0273,0.0229,0.0244,0.0221,0.0182,0.0176,0.015,0.008,0.0037,0.0016,0.0019,-0.0009,-0.0036,-0.0008,-0.0021,-0.002,-0.0019,-0.0048,-0.0051,-0.003,-0.003,-0.0031,-0.0031,0,0.0326,0.0333,0.0339,0.0338,0.0331,0.0335,0.0306,0.0297,0.0272,0.0245,0.0217,0.0154,0.0115,0.0093,0.0058,0.0045,0.0022,-0.0009,-0.0032,-0.0011,-0.0043,-0.0047,-0.0024,-0.0026,-0.0027,-0.0028,0,0,0.0365,0.0367,0.037,0.0385,0.0367,0.0369,0.0371,0.0361,0.0371,0.0318,0.032,0.0253,0.0216,0.0188,0.0137,0.0101,0.008,0.0055,0.0051,0.0038,0.0002,-0.0007,-0.0012,0.0045,0.0045,0.0045,-0.002,0,0.0406,0.0443,0.0429,0.0465,0.0484,0.0454,0.0464,0.0448,0.0421,0.041,0.0341,0.0318,0.0253,0.0237,0.0191,0.0109,0.0072,0.0101,-0.0026,-0.0029,-0.0032,-0.0016,0.0021,-0.0033,-0.0024,-0.0025,-0.0025,0,0.0451,0.047,0.0513,0.054,0.0546,0.0557,0.0571,0.0575,0.0545,0.0519,0.0478,0.0424,0.0369,0.0306,0.0183,0.0204,0.0114,0.0043,0.0038,0.0002,-0.0045,-0.0057,-0.0041,-0.0177,-0.0032,-0.0031,-0.0031,0,0.0501,0.0533,0.0572,0.0578,0.0595,0.0611,0.0621,0.0608,0.063,0.059,0.0593,0.0508,0.0477,0.0353,0.0212,0.0196,0.0073,0.0029,-0.0063,-0.0065,-0.0072,-0.0074,-0.0193,-0.0059,-0.0059,-0.0059,-0.0059,0,0.0553,0.0585,0.0598,0.0618,0.0676,0.0667,0.0716,0.0709,0.0716,0.0751,0.0655,0.0665,0.0486,0.0397,0.0248,0.0092,0.0098,-0.0047,-0.0081,-0.0044,-0.0042,-0.0193,-0.0295,-0.0061,-0.0061,-0.006,-0.006,0,0.0599,0.0605,0.0655,0.0683,0.0698,0.0739,0.0789,0.0829,0.0816,0.0858,0.0855,0.0788,0.0674,0.0492,0.03,0.0156,-0.0097,-0.0066,-0.0003,-0.0028,-0.0242,-0.0341,-0.0514,-0.0627,-0.0175,-0.0176,-0.0177,0,0.0626,0.0654,0.0705,0.0741,0.0754,0.0808,0.0855,0.0874,0.0924,0.0942,0.0979,0.0895,0.0862,0.0581,0.0314,0.0062,-0.011,-0.0088,-0.0118,-0.0241,-0.0377,-0.0442,-0.0531,-0.0098,-0.0097,-0.0097,-0.0097,0,0.068,0.0691,0.0731,0.0805,0.0859,0.0928,0.0996,0.1056,0.1088,0.1138,0.1193,0.1177,0.0922,0.071,0.0356,0.0159,-0.0197,-0.0093,-0.0241,-0.034,-0.0399,-0.0526,-0.0067,-0.0096,-0.0096,-0.0096,-0.0096,-0.0096,0.0719,0.0755,0.0804,0.0876,0.0945,0.1037,0.1105,0.1196,0.1303,0.1399,0.1377,0.1416,0.1093,0.0634,0.0323,-0.0162,-0.0208,-0.0292,-0.0404,-0.0459,-0.0563,-0.0092,-0.0149,-0.015,-0.015,-0.015,-0.0151,0,0.0767,0.0805,0.0874,0.0957,0.1039,0.1067,0.1196,0.128,0.1421,0.1556,0.1623,0.1574,0.1134,0.067,0.0014,-0.0369,-0.0548,-0.0585,-0.0671,-0.0754,-0.0338,-0.0327,-0.0398,-0.0398,-0.0398,-0.0398,-0.0398,-0.0398,0.0793,0.086,0.0889,0.1017,0.1081,0.1197,0.1275,0.1415,0.1552,0.176,0.1881,0.1944,0.1701,0.045,-0.039,-0.064,-0.096,-0.1003,-0.1196,-0.0893,-0.0873,-0.0855,-0.0866,-0.105,-0.1051,-0.1542,-0.1547,-0.1551]}],[{"header":{"parameterUnit":"m.s-1","parameterCategory":2,"la1":30.2991,"la2":30.254,"lo1":-89.0895,"lo2":-89.0444,"dy":0.0017,"dx":0.0017,"nx":28,"ny":28,"refTime":"2025-04-01T21:00:00:Z","depth":"2","parameterNumber":2,"parameterNumberName":"U-component_of_CURRENTS"},"data":[0,0,0,0,0,0,0,0,0,0,0,0,0,0,0,0,0,0,0,0,0,0,0,0,0,0,0,0,0,0,0,0,0,0,0,0,0,0,0,0,0,0,0,0,0,0,0,0,0,0,0,0,0,0,0,0,0,0,0.2755,0.2755,0,0.2761,0.2761,0.2761,0.2744,0.2744,0.2743,0.2743,0.2719,0.2719,0.2719,0,0,0,0,0,0,0,0,0,0,0,0,0,0.2723,0.2724,0.2755,0.2755,0.2755,0.2761,0.2761,0.2761,0.2744,0.2744,0.2743,0.2743,0.2719,0.2719,0.2719,0,0,0,0,0,0,0,0,0,0,0,0,0,0.2733,0.2724,0.2754,0.2749,0.2748,0.2761,0.2761,0.2761,0.2744,0.2744,0.2743,0.2743,0.2719,0.2719,0.2719,0.2727,0,0,0.2717,0.2717,0,0,0,0,0,0,0,0,0.2732,0.2734,0.2749,0.2749,0.2749,0.2753,0.2742,0.2749,0.2744,0.2744,0.2743,0.2742,0.2729,0.2728,0.2728,0.2726,0.2725,0.2717,0.2717,0.2717,0.2717,0,0,0,0,0,0,0,0.2731,0.2733,0.2755,0.275,0.2749,0.2745,0.2745,0.2743,0.2738,0.2744,0.2743,0.2747,0.2728,0.2729,0.2728,0.2725,0.2717,0.2717,0.2717,0.2716,0.2764,0.2765,0,0,0,0,0,0,0.2735,0.2733,0.2755,0.2756,0.2741,0.2746,0.2746,0.2751,0.2738,0.2737,0.2747,0.2746,0.273,0.2728,0.2727,0.2759,0.2717,0.2716,0.2716,0.2762,0.2764,0.2766,0,0,0,0,0,0,0.2734,0.2737,0.2755,0.2746,0.2748,0.2747,0.2752,0.2751,0.2757,0.2742,0.2739,0.2755,0.2729,0.2727,0.2738,0.2757,0.2716,0.2716,0.276,0.2763,0.2765,0.2809,0,0,0,0,0,0,0.2733,0.2737,0.2742,0.2746,0.2749,0.2771,0.2753,0.2752,0.2761,0.2759,0.2748,0.2744,0.2729,0.2738,0.2737,0.2756,0.2715,0.2758,0.2761,0.2764,0.2806,0.2813,0.2819,0,0,0,0,0,0.2732,0.274,0.2742,0.2745,0.2755,0.2772,0.2773,0.2769,0.2762,0.2771,0.2766,0.2745,0.2756,0.2739,0.2737,0.2756,0.2757,0.2761,0.2764,0.2803,0.2812,0.2819,0,0,0,0,0,0,0.2727,0.274,0.2741,0.2752,0.2766,0.277,0.2777,0.2777,0.278,0.278,0.276,0.2758,0.2778,0.2765,0.2747,0.2781,0.2755,0.2758,0.2785,0.2793,0.2799,0.2804,0.2715,0,0,0,0,0,0.2731,0.274,0.2754,0.2764,0.2773,0.2778,0.2784,0.2786,0.279,0.2791,0.2784,0.2782,0.2791,0.2789,0.2794,0.2806,0.2813,0.282,0.2827,0.2832,0.2837,0.287,0.288,0.2777,0.2777,0.2777,0,0,0.273,0.274,0.2744,0.2764,0.2773,0.2789,0.278,0.2798,0.2811,0.2789,0.2802,0.2806,0.2802,0.2821,0.2829,0.281,0.2868,0.2836,0.2841,0.2843,0.2875,0.2885,0.2894,0.2779,0.2779,0.2778,0,0,0.2736,0.2748,0.2757,0.2773,0.2795,0.2803,0.2812,0.2825,0.2832,0.2849,0.2844,0.2861,0.2861,0.2869,0.287,0.2916,0.2906,0.2919,0.2946,0.2979,0.2987,0.2995,0.3025,0.3034,0.2915,0.2915,0.2915,0,0.2735,0.2748,0.2764,0.2781,0.2794,0.2811,0.2827,0.2842,0.2857,0.287,0.2859,0.289,0.2885,0.2918,0.2934,0.293,0.2946,0.2913,0.2986,0.2994,0.3001,0.303,0.304,0.2918,0.2917,0.2917,0.2917,0,0.2746,0.2761,0.2772,0.2797,0.2816,0.2836,0.2861,0.2883,0.2893,0.2907,0.2945,0.2948,0.2965,0.2972,0.2963,0.3015,0.3011,0.2995,0.2964,0.3014,0.3041,0.3051,0.2921,0.292,0.292,0.2919,0,0,0.273,0.277,0.2773,0.2783,0.2827,0.2838,0.2879,0.2915,0.2941,0.2964,0.2997,0.3022,0.3031,0.3035,0.3036,0.3062,0.3126,0.305,0.305,0.3075,0.3204,0.3201,0.3211,0.3123,0.3125,0.3126,0.3206,0,0.2732,0.2755,0.2782,0.2806,0.282,0.2859,0.2893,0.2932,0.2965,0.3004,0.3033,0.3064,0.3053,0.3067,0.3095,0.3123,0.3153,0.3106,0.3156,0.3157,0.3145,0.3223,0.2952,0.3,0.3215,0.3217,0.3218,0,0.2728,0.2745,0.2765,0.2807,0.2818,0.2839,0.2896,0.2932,0.3005,0.3033,0.3081,0.3105,0.3162,0.3136,0.3213,0.3185,0.3201,0.3215,0.3218,0.3206,0.3174,0.2984,0.301,0.3234,0.3233,0.3232,0.3231,0,0.269,0.2731,0.2742,0.2755,0.2809,0.2829,0.2866,0.2937,0.2975,0.3057,0.3097,0.316,0.3201,0.3237,0.3279,0.325,0.3361,0.332,0.3333,0.3333,0.3107,0.3084,0.3372,0.3372,0.3372,0.3372,0.3372,0,0.2672,0.2679,0.2721,0.2724,0.2747,0.2801,0.2839,0.2894,0.2977,0.3027,0.3106,0.3161,0.323,0.3299,0.3314,0.3374,0.3393,0.3362,0.3363,0.3117,0.3096,0.3294,0.3283,0.3375,0.3374,0.3374,0.3373,0,0.2623,0.2651,0.2663,0.2711,0.2725,0.2742,0.2814,0.2847,0.2942,0.3014,0.3046,0.3181,0.3284,0.3353,0.343,0.3425,0.347,0.3478,0.3195,0.3163,0.3406,0.3397,0.35,0.3501,0.3502,0.3502,0.3503,0,0.2597,0.2598,0.2635,0.264,0.2658,0.2692,0.2718,0.2812,0.2858,0.3018,0.3053,0.3198,0.3286,0.343,0.3437,0.3487,0.352,0.3266,0.3165,0.3434,0.3424,0.3414,0.3405,0.2876,0.2871,0.2867,0.2864,0,0.255,0.2565,0.2574,0.2584,0.26,0.2618,0.2669,0.2699,0.282,0.2895,0.3022,0.3114,0.3271,0.3226,0.3316,0.3296,0.3239,0.3194,0.3541,0.2906,0.2857,0.2844,0.2852,0.283,0.2833,0.2836,0.2838,0.2839,0.2513,0.2506,0.2519,0.252,0.2532,0.2534,0.2523,0.259,0.2648,0.2723,0.2887,0.2934,0.3014,0.3029,0.2964,0.2913,0.3137,0.2985,0.2991,0.3002,0.2937,0.2893,0.286,0.2864,0.2867,0.2869,0.2872,0,0.2456,0.2455,0.2455,0.2439,0.2406,0.2451,0.2475,0.2437,0.2453,0.2561,0.2636,0.2492,0.2501,0.257,0.2455,0.25,0.24,0.2389,0.2218,0.2258,0.2292,0.2182,0.191,0.1907,0.1903,0.19,0,0,0.2428,0.2395,0.2386,0.2308,0.2299,0.2221,0.2211,0.2183,0.2216,0.2195,0.2198,0.2379,0.252,0.2169,0.2153,0.201,0.2098,0.1927,0.2711,0.2551,0.258,0.2669,0.2552,0,0,0,0,0]},{"header":{"parameterUnit":"m.s-1","parameterCategory":2,"la1":30.2991,"la2":30.254,"lo1":-89.0895,"lo2":-89.0444,"dy":0.0017,"dx":0.0017,"nx":28,"ny":28,"refTime":"2025-04-01T21:00:00:Z","depth":"2","parameterNumber":3,"parameterNumberName":"V-component_of_CURRENTS"},"data":[0,0,0,0,0,0,0,0,0,0,0,0,0,0,0,0,0,0,0,0,0,0,0,0,0,0,0,0,0,0,0,0,0,0,0,0,0,0,0,0,0,0,0,0,0,0,0,0,0,0,0,0,0,0,0,0,0,0,0.0107,0.0106,0,0.0037,0.0036,0.0035,-0.0009,-0.0009,-0.0009,-0.0009,-0.0103,-0.0106,-0.0108,0,0,0,0,0,0,0,0,0,0,0,0,0,0.0153,0.0152,0.0107,0.0106,0.0105,0.0037,0.0036,0.0035,-0.0009,-0.0009,-0.0009,-0.0009,-0.0102,-0.0105,-0.0108,0,0,0,0,0,0,0,0,0,0,0,0,0,0.0111,0.0152,0.0107,0.0077,0.0073,0.0037,0.0036,0.0034,-0.0009,-0.0009,-0.0009,-0.0009,-0.0102,-0.0105,-0.0109,-0.0128,0,0,-0.012,-0.0121,0,0,0,0,0,0,0,0,0.0114,0.011,0.0082,0.0079,0.0075,0.0024,0.0018,-0.0021,-0.0009,0.002,-0.0009,-0.0009,-0.0062,-0.0069,-0.0084,-0.0133,-0.0137,-0.012,-0.0122,-0.0124,-0.0125,0,0,0,0,0,0,0,0.0117,0.0112,0.0077,0.0081,0.0077,0.005,0.0044,0.001,-0.0021,0.0018,0.0015,0.001,-0.0064,-0.008,-0.0086,-0.0138,-0.012,-0.0123,-0.0125,-0.0127,-0.0202,-0.0202,0,0,0,0,0,0,0.0132,0.0115,0.008,0.0075,0.0096,0.0049,0.0043,0.0039,-0.002,-0.0028,0.001,0.0008,-0.0074,-0.0082,-0.009,-0.0097,-0.0124,-0.0127,-0.0129,-0.0202,-0.0202,-0.0201,0,0,0,0,0,0,0.0133,0.0129,0.0082,0.0095,0.0087,0.0049,0.0045,0.0038,0.0026,-0.0025,-0.0035,0.0007,-0.0074,-0.0085,-0.0111,-0.0102,-0.0129,-0.0132,-0.0202,-0.0202,-0.0202,-0.0124,0,0,0,0,0,0,0.0135,0.013,0.0134,0.0096,0.0087,0.007,0.0045,0.0037,0.0024,0.0021,-0.0031,-0.0041,-0.0075,-0.0106,-0.0115,-0.0107,-0.0135,-0.0202,-0.0202,-0.0202,-0.0127,-0.0121,-0.0117,0,0,0,0,0,0.0137,0.0145,0.0134,0.013,0.0093,0.0071,0.0064,0.0034,0.0024,0.0023,-0.0011,-0.0039,-0.011,-0.0108,-0.0119,-0.0112,-0.0203,-0.0202,-0.0202,-0.0129,-0.0122,-0.0117,0,0,0,0,0,0,0.0167,0.014,0.0128,0.0128,0.0105,0.0064,0.0062,0.0041,0.0013,0.0012,-0.0037,-0.0048,-0.0069,-0.0102,-0.0099,-0.0134,-0.0161,-0.0163,-0.0102,-0.0096,-0.0091,-0.0069,-0.0138,0,0,0,0,0,0.0176,0.0175,0.0144,0.0144,0.0137,0.0101,0.0089,0.0071,0.0041,0.0028,-0.0007,-0.0045,-0.0077,-0.0094,-0.0129,-0.0147,-0.0178,-0.0151,-0.0146,-0.0141,-0.0131,-0.0171,-0.0168,-0.02,-0.02,-0.02,0,0,0.0188,0.0174,0.0173,0.0151,0.0132,0.013,0.0093,0.0083,0.0082,0.0022,0.0012,-0.0028,-0.0079,-0.0098,-0.011,-0.0123,-0.0147,-0.014,-0.0135,-0.0129,-0.0171,-0.0167,-0.0165,-0.02,-0.02,-0.02,0,0,0.0216,0.02,0.0211,0.0198,0.0177,0.0156,0.0158,0.0123,0.0109,0.0089,0.0049,0.0019,-0.0033,-0.0062,-0.0085,-0.0073,-0.0118,-0.0087,-0.0042,-0.008,-0.0078,-0.0076,-0.0104,-0.0105,-0.0083,-0.0083,-0.0083,0,0.0233,0.0241,0.021,0.0219,0.0217,0.0174,0.0188,0.0166,0.0128,0.0121,0.0097,0.0029,-0.0014,-0.0035,-0.0032,-0.0059,-0.0087,-0.0059,-0.0072,-0.0071,-0.007,-0.01,-0.0102,-0.0079,-0.008,-0.008,-0.008,0,0.0268,0.0275,0.0282,0.028,0.0273,0.0277,0.0248,0.024,0.0216,0.0189,0.0161,0.01,0.0062,0.004,0.0006,-0.0008,-0.003,-0.006,-0.0083,-0.0062,-0.0095,-0.0098,-0.0074,-0.0075,-0.0076,-0.0077,0,0,0.0307,0.0308,0.0311,0.0326,0.0308,0.0309,0.0312,0.0301,0.031,0.0259,0.026,0.0195,0.016,0.0131,0.0082,0.0046,0.0025,0.0002,-0.0002,-0.0016,-0.0053,-0.0061,-0.0067,-0.0009,-0.0009,-0.0009,-0.0074,0,0.0347,0.0382,0.0368,0.0403,0.0421,0.0391,0.0401,0.0385,0.0358,0.0347,0.0279,0.0257,0.0195,0.018,0.0134,0.0054,0.0017,0.0046,-0.008,-0.0083,-0.0086,-0.0071,-0.0059,-0.0115,-0.0078,-0.0079,-0.0079,0,0.039,0.0408,0.0449,0.0475,0.0481,0.0491,0.0505,0.0508,0.0477,0.0453,0.0412,0.036,0.0306,0.0246,0.0124,0.0145,0.0057,-0.0012,-0.0017,-0.0054,-0.0099,-0.0134,-0.0124,-0.0086,-0.0086,-0.0085,-0.0085,0,0.0439,0.047,0.0507,0.0513,0.0529,0.0544,0.0554,0.0541,0.0562,0.0521,0.0525,0.0441,0.0411,0.0289,0.0151,0.0136,0.0013,-0.0029,-0.0119,-0.0121,-0.0149,-0.0153,-0.0116,-0.0116,-0.0116,-0.0116,-0.0116,0,0.0489,0.052,0.0533,0.0552,0.0608,0.0599,0.0647,0.064,0.0646,0.0679,0.0586,0.0594,0.042,0.0331,0.0185,0.0031,0.0037,-0.0104,-0.0137,-0.0122,-0.0122,-0.0131,-0.0131,-0.0118,-0.0118,-0.0117,-0.0117,0,0.0534,0.054,0.0588,0.0616,0.0631,0.067,0.0719,0.0757,0.0744,0.0785,0.0782,0.0714,0.0601,0.0423,0.0233,0.0092,-0.0066,-0.0126,-0.0088,-0.0116,-0.0184,-0.018,-0.0231,-0.0232,-0.0233,-0.0233,-0.0234,0,0.056,0.0588,0.0637,0.0673,0.0686,0.074,0.0785,0.0802,0.0851,0.0866,0.0901,0.0817,0.078,0.0502,0.0235,-0.0014,-0.0053,-0.0175,-0.0205,-0.0167,-0.0195,-0.019,-0.0186,-0.0214,-0.0214,-0.0215,-0.0215,0,0.0612,0.0625,0.0663,0.0736,0.0789,0.0857,0.0923,0.098,0.101,0.1054,0.1104,0.1083,0.0826,0.0586,0.0237,0.0058,-0.0135,-0.0187,-0.0164,-0.018,-0.0155,-0.0181,-0.0177,-0.0217,-0.0217,-0.0217,-0.0216,-0.0216,0.065,0.0686,0.0734,0.0806,0.0873,0.0962,0.1029,0.1104,0.1203,0.1261,0.1251,0.1212,0.0935,0.0499,0.0193,-0.0143,-0.0126,-0.0254,-0.0252,-0.025,-0.0229,-0.0206,-0.0274,-0.0274,-0.0274,-0.0274,-0.0274,0,0.0694,0.0735,0.0802,0.0885,0.0958,0.0993,0.1116,0.1169,0.1287,0.1347,0.1382,0.1121,0.0867,0.0543,0.0053,-0.0229,-0.0262,-0.0326,-0.0304,-0.0299,-0.0296,-0.0278,-0.0335,-0.0336,-0.0337,-0.0338,0,0,0.0717,0.078,0.0808,0.093,0.0998,0.1095,0.1169,0.1252,0.1315,0.1362,0.1356,0.1325,0.0964,0.06,0.0215,-0.0061,-0.0122,-0.0125,-0.0047,0.0028,0.0034,-0.0227,-0.019,0,0,0,0,0]}],[{"header":{"parameterUnit":"m.s-1","parameterCategory":2,"la1":30.2991,"la2":30.254,"lo1":-89.0895,"lo2":-89.0444,"dy":0.0017,"dx":0.0017,"nx":28,"ny":28,"refTime":"2025-04-01T21:00:00:Z","depth":"4","parameterNumber":2,"parameterNumberName":"U-component_of_CURRENTS"},"data":[0,0,0,0,0,0,0,0,0,0,0,0,0,0,0,0,0,0,0,0,0,0,0,0,0,0,0,0,0,0,0,0,0,0,0,0,0,0,0,0,0,0,0,0,0,0,0,0,0,0,0,0,0,0,0,0,0,0,0.1801,0.1802,0,0.1861,0.1861,0.1862,0.1913,0.1914,0.1915,0.1915,0.1987,0.1988,0.1989,0,0,0,0,0,0,0,0,0,0,0,0,0,0.1719,0.172,0.1801,0.1802,0.1803,0.1861,0.1861,0.1862,0.1913,0.1914,0.1915,0.1916,0.1986,0.1988,0.1989,0,0,0,0,0,0,0,0,0,0,0,0,0,0.1763,0.172,0.1801,0.1836,0.184,0.186,0.1861,0.1862,0.1913,0.1914,0.1915,0.1916,0.1986,0.1987,0.1989,0.1979,0,0,0.1995,0.1996,0,0,0,0,0,0,0,0,0.176,0.1766,0.183,0.1834,0.1838,0.1882,0.1858,0.1902,0.1913,0.1884,0.1915,0.1917,0.1953,0.1957,0.1964,0.1983,0.1986,0.1995,0.1996,0.1997,0.1998,0,0,0,0,0,0,0,0.1757,0.1763,0.1823,0.1831,0.1836,0.1845,0.1852,0.1867,0.1911,0.1887,0.1891,0.1899,0.1955,0.1962,0.1966,0.1987,0.1995,0.1997,0.1998,0.1999,0.2119,0.2121,0,0,0,0,0,0,0.1752,0.176,0.1821,0.1825,0.1803,0.1846,0.1854,0.1866,0.1911,0.1919,0.1898,0.1901,0.1958,0.1964,0.1969,0.2063,0.1997,0.1999,0.2,0.2117,0.2119,0.2122,0,0,0,0,0,0,0.175,0.1757,0.1819,0.1795,0.1804,0.1846,0.1859,0.1866,0.1913,0.192,0.1928,0.1942,0.196,0.1966,0.202,0.2063,0.2,0.2001,0.2114,0.2118,0.2121,0.2186,0,0,0,0,0,0,0.1748,0.1756,0.1781,0.1795,0.1805,0.1857,0.1858,0.1867,0.1914,0.192,0.1959,0.1964,0.1961,0.2018,0.2022,0.2064,0.2003,0.2112,0.2116,0.212,0.2181,0.2191,0.2199,0,0,0,0,0,0.1744,0.1767,0.1782,0.179,0.1832,0.1858,0.1865,0.1896,0.1916,0.1941,0.1973,0.1965,0.2046,0.2021,0.2026,0.2069,0.211,0.2115,0.2119,0.2177,0.2189,0.2199,0,0,0,0,0,0,0.1746,0.1775,0.1791,0.1824,0.1852,0.1868,0.19,0.1918,0.1963,0.1983,0.1988,0.1995,0.2061,0.2057,0.2029,0.2117,0.2078,0.2084,0.2121,0.2132,0.2141,0.2138,0.2004,0,0,0,0,0,0.1756,0.1786,0.1809,0.1841,0.1859,0.1887,0.191,0.1933,0.1963,0.1986,0.2013,0.2045,0.2076,0.2099,0.2123,0.2166,0.2165,0.22,0.2209,0.2216,0.222,0.2255,0.2267,0.2137,0.2137,0.2137,0,0,0.1766,0.1788,0.1806,0.1845,0.1872,0.1901,0.1905,0.1952,0.1987,0.1985,0.2056,0.2081,0.2097,0.2151,0.2179,0.2157,0.2255,0.2222,0.2229,0.2227,0.2261,0.2274,0.2285,0.214,0.214,0.2139,0,0,0.1786,0.1823,0.185,0.1877,0.1925,0.194,0.1962,0.2003,0.2039,0.2095,0.211,0.2162,0.2207,0.2227,0.224,0.2314,0.2304,0.2331,0.2374,0.2409,0.2419,0.2429,0.2449,0.2459,0.2333,0.2334,0.2334,0,0.18,0.1834,0.1863,0.1894,0.1923,0.1962,0.1995,0.2031,0.2088,0.2122,0.2131,0.2222,0.224,0.2299,0.233,0.2334,0.2349,0.2328,0.242,0.2429,0.2437,0.2455,0.2466,0.2337,0.2337,0.2337,0.2336,0,0.1824,0.1867,0.1889,0.194,0.1974,0.2015,0.2058,0.2112,0.2159,0.2191,0.2277,0.2307,0.2357,0.2378,0.2378,0.2454,0.2444,0.2427,0.2387,0.2454,0.2469,0.2479,0.2343,0.2341,0.234,0.2339,0,0,0.1811,0.189,0.1903,0.1934,0.2005,0.203,0.2102,0.2165,0.2217,0.2285,0.235,0.2417,0.2444,0.2462,0.2478,0.2512,0.2587,0.2504,0.2504,0.2515,0.2666,0.251,0.2506,0.2593,0.2595,0.2596,0.2654,0,0.1825,0.1882,0.1924,0.1989,0.202,0.2083,0.2142,0.2211,0.2273,0.2346,0.2402,0.2471,0.2472,0.2512,0.255,0.2583,0.2617,0.2573,0.2607,0.2607,0.2454,0.2513,0.2603,0.2661,0.2664,0.2665,0.2666,0,0.1825,0.1867,0.193,0.2013,0.2036,0.2086,0.2186,0.2245,0.2351,0.2403,0.2482,0.2526,0.2609,0.2591,0.2678,0.2656,0.2671,0.2684,0.2686,0.2521,0.2469,0.2581,0.2684,0.2683,0.2681,0.268,0.2679,0,0.1779,0.1868,0.192,0.1949,0.2048,0.2103,0.2166,0.227,0.2329,0.2449,0.2504,0.2596,0.2658,0.27,0.2742,0.2724,0.2818,0.2787,0.2659,0.2648,0.2741,0.273,0.284,0.284,0.284,0.284,0.2839,0,0.1753,0.1799,0.191,0.1935,0.2007,0.209,0.2176,0.2254,0.2368,0.2429,0.2536,0.2588,0.2693,0.2756,0.2772,0.2746,0.2845,0.2672,0.2654,0.2768,0.276,0.2747,0.2736,0.2842,0.2841,0.2841,0.2841,0,0.1687,0.1762,0.1826,0.1944,0.1986,0.2041,0.2173,0.2226,0.2351,0.2436,0.2482,0.2615,0.2688,0.2765,0.2838,0.2767,0.2767,0.2732,0.2861,0.2848,0.2564,0.2556,0.258,0.2575,0.2571,0.2567,0.2564,0,0.1653,0.1682,0.1815,0.1856,0.1917,0.201,0.2069,0.2204,0.2254,0.2421,0.2446,0.2576,0.2643,0.2619,0.2713,0.2731,0.2702,0.2679,0.2604,0.2558,0.254,0.2538,0.2535,0.2558,0.2556,0.2555,0.2554,0,0.1587,0.1654,0.1708,0.1791,0.1863,0.1924,0.2018,0.2037,0.2182,0.2315,0.2347,0.2384,0.2463,0.2512,0.2553,0.2558,0.2678,0.2634,0.2641,0.2571,0.2532,0.2516,0.2519,0.254,0.2542,0.2543,0.2544,0,0.1544,0.1565,0.1648,0.1704,0.1787,0.1809,0.187,0.1921,0.1984,0.2158,0.2164,0.2299,0.2429,0.2424,0.2459,0.2458,0.2415,0.2324,0.2347,0.2365,0.2268,0.2184,0.2074,0,0,0,0,0,0.149,0.15,0.155,0.1598,0.1672,0.1719,0.1822,0.1884,0.2014,0.1982,0.2064,0.2121,0.2165,0.2242,0.2199,0.2378,0.2435,0.2317,0.2346,0.2459,0.2475,0.2383,0,0,0,0,0,0,0.1451,0.15,0.1511,0.1495,0.1507,0.1569,0.1628,0.1719,0.1706,0.1848,0.1886,0.1997,0.2081,0.217,0.216,0.2184,0.2158,0.2409,0.2404,0.2449,0.2464,0.2478,0.2388,0,0,0,0,0]},{"header":{"parameterUnit":"m.s-1","parameterCategory":2,"la1":30.2991,"la2":30.254,"lo1":-89.0895,"lo2":-89.0444,"dy":0.0017,"dx":0.0017,"nx":28,"ny":28,"refTime":"2025-04-01T21:00:00:Z","depth":"4","parameterNumber":3,"parameterNumberName":"V-component_of_CURRENTS"},"data":[0,0,0,0,0,0,0,0,0,0,0,0,0,0,0,0,0,0,0,0,0,0,0,0,0,0,0,0,0,0,0,0,0,0,0,0,0,0,0,0,0,0,0,0,0,0,0,0,0,0,0,0,0,0,0,0,0,0,0.0033,0.0032,0,-0.0012,-0.0013,-0.0013,-0.0049,-0.0049,-0.0049,-0.005,-0.0121,-0.0122,-0.0124,0,0,0,0,0,0,0,0,0,0,0,0,0,0.0057,0.0056,0.0033,0.0032,0.0032,-0.0012,-0.0013,-0.0014,-0.0049,-0.0049,-0.005,-0.005,-0.012,-0.0122,-0.0124,0,0,0,0,0,0,0,0,0,0,0,0,0,0.0031,0.0056,0.0033,0.001,0.0008,-0.0012,-0.0013,-0.0014,-0.0049,-0.0049,-0.005,-0.005,-0.012,-0.0122,-0.0124,-0.0133,0,0,-0.0132,-0.0133,0,0,0,0,0,0,0,0,0.0033,0.003,0.0014,0.0012,0.0009,-0.0024,-0.0031,-0.0054,-0.0049,-0.0029,-0.005,-0.005,-0.009,-0.0095,-0.0104,-0.0136,-0.0139,-0.0132,-0.0134,-0.0135,-0.0136,0,0,0,0,0,0,0,0.0035,0.0032,0.0014,0.0013,0.001,-0.0009,-0.0013,-0.0035,-0.0058,-0.0031,-0.0033,-0.0036,-0.0092,-0.0101,-0.0106,-0.014,-0.0132,-0.0134,-0.0136,-0.0137,-0.0187,-0.0187,0,0,0,0,0,0,0.0045,0.0034,0.0015,0.0012,0.0022,-0.0009,-0.0013,-0.0014,-0.0058,-0.0064,-0.0035,-0.0037,-0.0097,-0.0103,-0.0109,-0.0114,-0.0135,-0.0137,-0.0139,-0.0188,-0.0187,-0.0187,0,0,0,0,0,0,0.0046,0.0044,0.0017,0.0023,0.0018,-0.0008,-0.001,-0.0015,-0.0023,-0.0061,-0.0068,-0.0038,-0.0097,-0.0105,-0.0124,-0.0117,-0.0138,-0.0141,-0.0188,-0.0187,-0.0187,-0.0129,0,0,0,0,0,0,0.0046,0.0044,0.0048,0.0024,0.0018,0.0011,-0.0009,-0.0016,-0.0024,-0.0027,-0.0065,-0.0072,-0.0098,-0.012,-0.0126,-0.0121,-0.0143,-0.0188,-0.0188,-0.0187,-0.0131,-0.0127,-0.0123,0,0,0,0,0,0.0047,0.0056,0.0049,0.0047,0.0025,0.0012,0.0007,-0.0015,-0.0024,-0.0024,-0.0049,-0.0071,-0.0123,-0.0121,-0.0129,-0.0124,-0.0188,-0.0188,-0.0187,-0.0133,-0.0128,-0.0123,0,0,0,0,0,0,0.0069,0.0052,0.0044,0.0047,0.0033,0.0006,0.0006,-0.0009,-0.0029,-0.0031,-0.0068,-0.0076,-0.0091,-0.0116,-0.0114,-0.0139,-0.016,-0.0161,-0.0116,-0.0111,-0.0107,-0.0092,-0.0145,0,0,0,0,0,0.0076,0.0078,0.0058,0.0061,0.0057,0.0033,0.0025,0.0012,-0.0009,-0.0018,-0.0045,-0.0073,-0.0096,-0.0109,-0.0134,-0.0145,-0.0172,-0.0149,-0.0145,-0.0141,-0.0134,-0.017,-0.0168,-0.0186,-0.0186,-0.0186,0,0,0.0085,0.0077,0.0078,0.0066,0.0054,0.0054,0.0027,0.0022,0.0021,-0.0023,-0.003,-0.0059,-0.0096,-0.011,-0.0119,-0.0129,-0.0149,-0.014,-0.0137,-0.0132,-0.0169,-0.0168,-0.0166,-0.0186,-0.0186,-0.0186,0,0,0.0106,0.0099,0.0107,0.01,0.0087,0.0074,0.0075,0.0052,0.0041,0.003,-0.0001,-0.0024,-0.0059,-0.0083,-0.01,-0.0089,-0.0127,-0.0099,-0.0066,-0.01,-0.0099,-0.0098,-0.0125,-0.0127,-0.0097,-0.0097,-0.0097,0,0.0118,0.0126,0.0107,0.0114,0.0115,0.0086,0.0098,0.0083,0.0057,0.0053,0.0036,-0.0014,-0.0046,-0.0063,-0.006,-0.0079,-0.0103,-0.0079,-0.0094,-0.0094,-0.0094,-0.0122,-0.0125,-0.0094,-0.0094,-0.0094,-0.0095,0,0.0142,0.0151,0.0156,0.0157,0.0155,0.016,0.0142,0.0138,0.0122,0.0103,0.0084,0.0039,0.0011,-0.0006,-0.003,-0.0044,-0.0062,-0.0084,-0.0103,-0.0089,-0.0119,-0.0123,-0.009,-0.0091,-0.0092,-0.0092,0,0,0.0165,0.0173,0.0175,0.0188,0.018,0.0183,0.0188,0.0183,0.0191,0.0155,0.0156,0.0109,0.0083,0.0062,0.0025,-0.0006,-0.0029,-0.004,-0.0043,-0.0059,-0.01,-0.0103,-0.0108,-0.0055,-0.0055,-0.0056,-0.0118,0,0.019,0.0217,0.0213,0.0242,0.0255,0.0241,0.0252,0.0244,0.0227,0.0221,0.017,0.0156,0.0109,0.01,0.006,-0.0004,-0.0038,-0.001,-0.0117,-0.012,-0.0119,-0.0112,-0.0057,-0.0121,-0.0122,-0.0123,-0.0124,0,0.0215,0.0231,0.0265,0.0292,0.0298,0.0311,0.0328,0.0335,0.0316,0.0301,0.0271,0.0233,0.019,0.0145,0.0042,0.0062,-0.0011,-0.0068,-0.0072,-0.0097,-0.0131,-0.0142,-0.0132,-0.0131,-0.013,-0.013,-0.0129,0,0.0239,0.0269,0.0301,0.0308,0.033,0.0348,0.0362,0.0359,0.038,0.0354,0.036,0.0293,0.0271,0.017,0.0059,0.0049,-0.0059,-0.009,-0.0164,-0.0165,-0.0169,-0.017,-0.0168,-0.0168,-0.0168,-0.0168,-0.0167,0,0.0264,0.0291,0.0317,0.0333,0.0383,0.0385,0.043,0.0431,0.0444,0.0472,0.0407,0.0408,0.0276,0.0202,0.0083,-0.0044,-0.0043,-0.0154,-0.0181,-0.0143,-0.014,-0.0172,-0.0172,-0.017,-0.0169,-0.0169,-0.0169,0,0.0282,0.0297,0.0338,0.0376,0.0394,0.0429,0.0487,0.0519,0.0521,0.0554,0.0554,0.05,0.0401,0.0265,0.0106,0.0001,-0.0131,-0.0181,-0.0115,-0.0139,-0.0222,-0.0218,-0.0268,-0.0269,-0.0269,-0.027,-0.027,0,0.0291,0.0313,0.0372,0.0406,0.0425,0.0479,0.0522,0.0552,0.0589,0.0609,0.0629,0.0563,0.05,0.0289,0.0128,-0.0093,-0.0134,-0.0207,-0.023,-0.021,-0.0232,-0.0227,-0.0222,-0.0271,-0.0271,-0.0271,-0.0271,0,0.0309,0.0331,0.0366,0.0437,0.049,0.0553,0.0614,0.0651,0.0687,0.0696,0.0696,0.0592,0.0482,0.0306,0.014,-0.0026,-0.0162,-0.0214,-0.0214,-0.0237,-0.0214,-0.0234,-0.0229,-0.0273,-0.0273,-0.0273,-0.0272,0,0.0324,0.0351,0.04,0.0462,0.0534,0.0601,0.0634,0.0683,0.0725,0.0748,0.0748,0.0627,0.0567,0.034,0.0185,0.0028,-0.0028,-0.0099,-0.0107,-0.0107,-0.005,0.0003,-0.0007,0,0,0,0,0,0.0335,0.0363,0.0422,0.0489,0.0563,0.0603,0.0686,0.0714,0.0754,0.0766,0.0762,0.066,0.0447,0.0361,0.0204,0.0145,-0.0074,-0.0048,-0.0164,-0.0283,-0.0281,-0.0243,0,0,0,0,0,0,0.0339,0.039,0.0415,0.0499,0.0547,0.063,0.0682,0.0714,0.0721,0.0743,0.0643,0.06,0.04,0.0538,0.0196,0.0149,0.0047,-0.0141,-0.0145,-0.0284,-0.0282,-0.0281,-0.0241,0,0,0,0,0]}]]